This demonstration page uses our WeatherBlox Daily Observations layout. Learn more.

Left ArrowRight Arrow

Hourly Observations for November 11, 2015

Temp ( °F °C ) Dew Point ( °F °C ) Humidity (%) Winds ( mph kmh ) Pressure ( in mb ) Visibility ( mi km ) Precip ( " mm )
12:51 am 00:51 Clear 46 7.8 28 -2.2 50 50 NW 10 17 30.03 1017 10 16.0934 N/A
1:51 am 01:51 Clear 45 7.2 28 -2.2 52 52 WNW 7 11 30.04 1017 10 16.0934 N/A
2:51 am 02:51 Clear 43 6.1 28 -2.2 56 56 N 6 9 30.05 1018 10 16.0934 N/A
3:51 am 03:51 Clear 42 5.6 26 -3.3 53 53 NNW 9 15 30.06 1018 10 16.0934 N/A
4:51 am 04:51 Clear 42 5.6 25 -3.9 51 51 NW 9 15 30.09 1019 10 16.0934 N/A
5:51 am 05:51 Clear 39 3.9 23 -5 53 53 N 7 11 30.12 1020 10 16.0934 N/A
6:51 am 06:51 Sunny 38 3.3 23 -5 55 55 N 8 13 30.14 1021 10 16.0934 N/A
7:51 am 07:51 Sunny 46 7.8 23 -5 40 40 N N/A 30.16 1021 10 16.0934 N/A
8:51 am 08:51 Sunny 52 11.1 22 -5.6 31 31 WNW 9 15 30.17 1022 10 16.0934 N/A
9:51 am 09:51 Sunny 54 12.2 21 -6.1 28 28 NW 13 20 30.18 1022 10 16.0934 N/A
10:51 am 10:51 Sunny 56 13.3 21 -6.1 26 26 WNW 13 20 30.17 1022 10 16.0934 N/A
11:51 am 11:51 Sunny 57 13.9 21 -6.1 25 25 VRB 6 9 30.15 1021 10 16.0934 N/A
12:51 pm 12:51 Sunny 59 15 21 -6.1 23 23 WNW 9 15 30.12 1020 10 16.0934 N/A
1:51 pm 13:51 Sunny 60 15.6 21 -6.1 22 22 WSW 9 15 30.09 1019 10 16.0934 N/A
2:51 pm 14:51 Sunny 60 15.6 20 -6.7 21 21 WNW 8 13 30.08 1019 10 16.0934 N/A
3:51 pm 15:51 Sunny 61 16.1 21 -6.1 21 21 WNW 8 13 30.08 1019 10 16.0934 N/A
4:51 pm 16:51 Sunny 59 15 20 -6.7 22 22 WNW 8 13 30.09 1019 10 16.0934 N/A
5:51 pm 17:51 Clear 52 11.1 21 -6.1 30 30 WNW 6 9 30.11 1020 10 16.0934 N/A
6:51 pm 18:51 Clear 49 9.4 22 -5.6 35 35 WNW 6 9 30.14 1021 10 16.0934 N/A
7:51 pm 19:51 Clear 45 7.2 22 -5.6 40 40 NNW 9 15 30.14 1021 10 16.0934 N/A
8:51 pm 20:51 Clear 44 6.7 23 -5 43 43 SE 5 7 30.14 1021 10 16.0934 N/A
9:51 pm 21:51 Clear 40 4.4 23 -5 51 51 SE 5 7 30.17 1022 10 16.0934 N/A
10:51 pm 22:51 Clear 39 3.9 22 -5.6 50 50 ESE 3 6 30.17 1022 10 16.0934 N/A
11:51 pm 23:51 Clear 40 4.4 23 -5 51 51 SE 5 7 30.16 1022 10 16.0934 N/A

Powered by AerisWeather